[[{"header":{"parameterUnit":"m.s-1","parameterCategory":1,"la1":30.2991,"la2":30.254,"lo1":-89.0895,"lo2":-89.0444,"dy":0.0017,"dx":0.0017,"nx":28,"ny":28,"refTime":"2025-12-16T03:00:00:Z","depth":0,"parameterNumber":2,"parameterNumberName":"U-component_of_WINDS"},"data":[0,0,0,0,0,0,0,0,0,0,0,0,0,0,0,0,0,0,0,0,0,0,0,0,0,0,0,0,0,0,0,0,0,0,0,0,0,0,0,0,0,0,0,0,0,0,0,0,0,0,0,0,0,0,0,0,0,0,-2.8029,-2.803,0,-2.8038,-2.8038,-2.8038,-2.794,-2.7937,-2.7935,-2.7932,-2.7942,-2.7945,-2.7948,0,0,0,0,0,0,0,0,0,0,0,0,0,-2.7928,-2.793,-2.8029,-2.803,-2.803,-2.8038,-2.8038,-2.8038,-2.7941,-2.7937,-2.7934,-2.7931,-2.7941,-2.7945,-2.7948,0,0,0,0,0,0,0,0,0,0,0,0,0,-2.7958,-2.7931,-2.8029,-2.7982,-2.7978,-2.8038,-2.8038,-2.8038,-2.7941,-2.7937,-2.7933,-2.7929,-2.794,-2.7944,-2.7949,-2.8055,0,0,-2.7961,-2.7963,0,0,0,0,0,0,0,0,-2.7956,-2.7962,-2.7989,-2.7985,-2.7981,-2.7984,-2.8006,-2.8044,-2.7942,-2.7955,-2.7932,-2.7927,-2.796,-2.7962,-2.7972,-2.8056,-2.8056,-2.7962,-2.7964,-2.7966,-2.7967,0,0,0,0,0,0,0,-2.7954,-2.7961,-2.8033,-2.7989,-2.7984,-2.796,-2.796,-2.8013,-2.798,-2.7954,-2.7947,-2.7949,-2.7957,-2.7969,-2.7972,-2.8056,-2.7962,-2.7965,-2.7968,-2.7969,-2.8228,-2.8232,0,0,0,0,0,0,-2.7959,-2.796,-2.8033,-2.8033,-2.7958,-2.7965,-2.7965,-2.7987,-2.7979,-2.7974,-2.7952,-2.7944,-2.7963,-2.7967,-2.7972,-2.8097,-2.7966,-2.797,-2.7972,-2.8224,-2.8229,-2.8233,0,0,0,0,0,0,-2.7957,-2.7966,-2.8032,-2.7995,-2.8001,-2.7971,-2.7997,-2.7989,-2.8001,-2.7978,-2.7972,-2.7971,-2.796,-2.7966,-2.8035,-2.8096,-2.7972,-2.7976,-2.8218,-2.8225,-2.8231,-2.8348,0,0,0,0,0,0,-2.7954,-2.7966,-2.8007,-2.7996,-2.8004,-2.8096,-2.8,-2.7992,-2.8009,-2.7998,-2.7994,-2.7989,-2.7958,-2.803,-2.804,-2.81,-2.7979,-2.8213,-2.8221,-2.8229,-2.8339,-2.8358,-2.8374,0,0,0,0,0,-2.7951,-2.8039,-2.8009,-2.8019,-2.8053,-2.81,-2.8104,-2.8066,-2.8014,-2.8054,-2.8039,-2.7989,-2.8087,-2.8038,-2.8048,-2.811,-2.8209,-2.8219,-2.8228,-2.8331,-2.8354,-2.8374,0,0,0,0,0,0,-2.8059,-2.8037,-2.8004,-2.8091,-2.8098,-2.8083,-2.8133,-2.8091,-2.8113,-2.8103,-2.8054,-2.8054,-2.8132,-2.8127,-2.8072,-2.8213,-2.8139,-2.8151,-2.8214,-2.8235,-2.8253,-2.8253,-2.7982,0,0,0,0,0,-2.8092,-2.8131,-2.811,-2.819,-2.8195,-2.8164,-2.8182,-2.8152,-2.8157,-2.816,-2.815,-2.8157,-2.8189,-2.8212,-2.824,-2.8337,-2.8335,-2.8385,-2.8402,-2.8417,-2.8429,-2.848,-2.8503,-2.8266,-2.8266,-2.8265,0,0,-2.8163,-2.8156,-2.8184,-2.8211,-2.8213,-2.8255,-2.8167,-2.8215,-2.8245,-2.8167,-2.8232,-2.8225,-2.823,-2.8313,-2.835,-2.8312,-2.8494,-2.843,-2.8442,-2.8445,-2.8493,-2.8515,-2.8535,-2.8272,-2.8271,-2.827,0,0,-2.8313,-2.8311,-2.8377,-2.838,-2.8384,-2.8362,-2.8378,-2.8369,-2.8361,-2.8425,-2.8368,-2.8403,-2.846,-2.8466,-2.8476,-2.8627,-2.8582,-2.8637,-2.8731,-2.8782,-2.88,-2.8817,-2.8872,-2.8892,-2.8649,-2.8649,-2.8649,0,-2.84,-2.8461,-2.8416,-2.8468,-2.8482,-2.8412,-2.8479,-2.8484,-2.8497,-2.8508,-2.8466,-2.8535,-2.8533,-2.8618,-2.8654,-2.8665,-2.8682,-2.8639,-2.8801,-2.8817,-2.8832,-2.8884,-2.8904,-2.8656,-2.8655,-2.8654,-2.8654,0,-2.8568,-2.8611,-2.8664,-2.8678,-2.8697,-2.8757,-2.8721,-2.8746,-2.8714,-2.8697,-2.8763,-2.8758,-2.8785,-2.8802,-2.8771,-2.8882,-2.8859,-2.8809,-2.8734,-2.8862,-2.891,-2.8929,-2.8666,-2.8663,-2.8661,-2.8659,0,0,-2.8789,-2.8776,-2.8796,-2.8802,-2.88,-2.8832,-2.8888,-2.8913,-2.8936,-2.8946,-2.8992,-2.9041,-2.8995,-2.9007,-2.8976,-2.902,-2.9141,-2.8965,-2.8964,-2.8999,-2.9264,-2.9303,-2.9327,-2.911,-2.9114,-2.9117,-2.9264,0,-2.8936,-2.903,-2.8992,-2.909,-2.9129,-2.9062,-2.911,-2.9115,-2.91,-2.9131,-2.9114,-2.915,-2.9086,-2.9093,-2.9133,-2.9118,-2.9194,-2.9106,-2.9154,-2.9156,-2.9157,-2.9352,-2.9393,-2.9533,-2.9283,-2.9286,-2.9288,0,-2.9121,-2.9139,-2.9241,-2.9232,-2.9247,-2.9291,-2.9311,-2.9341,-2.9344,-2.933,-2.9343,-2.9301,-2.9355,-2.9279,-2.9353,-2.9294,-2.9311,-2.9306,-2.9311,-2.9315,-2.9232,-2.9363,-2.9576,-2.9598,-2.9317,-2.9315,-2.9313,0,-2.9273,-2.9323,-2.939,-2.9397,-2.9387,-2.942,-2.9417,-2.9416,-2.9434,-2.9451,-2.9462,-2.9485,-2.9498,-2.9517,-2.9483,-2.9431,-2.9562,-2.9483,-2.9553,-2.9554,-2.9586,-2.9585,-2.9806,-2.9594,-2.9593,-2.9593,-2.9592,0,-2.9443,-2.9509,-2.9458,-2.9501,-2.9572,-2.9526,-2.9598,-2.9588,-2.9587,-2.9626,-2.9568,-2.9606,-2.9558,-2.9591,-2.9564,-2.963,-2.9636,-2.9627,-2.962,-2.9633,-2.9635,-2.9645,-2.9635,-2.9598,-2.9597,-2.9596,-2.9595,0,-2.9626,-2.9595,-2.9665,-2.9649,-2.9647,-2.9701,-2.9687,-2.9725,-2.9705,-2.9755,-2.9764,-2.9734,-2.977,-2.9737,-2.9771,-2.9753,-2.9841,-2.9819,-2.9841,-2.9835,-2.9908,-2.9902,-3.0146,-3.0176,-2.9942,-2.9944,-2.9946,0,-2.9738,-2.9787,-2.9776,-2.9798,-2.9799,-2.9835,-2.9852,-2.9808,-2.9828,-2.9835,-2.9873,-2.9903,-2.9926,-2.9986,-2.9967,-2.9993,-2.9972,-3.0055,-2.9976,-2.9988,-2.9975,-2.9974,-2.9979,-3.0073,-3.0075,-3.0078,-3.0079,0,-2.994,-2.9921,-2.9948,-2.9971,-2.9993,-3.0008,-3.0019,-3.004,-2.9994,-3.002,-3.0056,-3.0073,-3.0108,-3.0139,-3.0159,-3.0156,-3.0112,-3.0104,-3.0122,-3.0138,-3.0149,-3.0146,-2.9887,-3.0099,-3.0097,-3.0096,-3.0095,-3.0094,-3.0091,-3.0132,-3.0131,-3.0163,-3.0166,-3.0177,-3.0212,-3.0196,-3.0225,-3.025,-3.0222,-3.0266,-3.0267,-3.0288,-3.0291,-3.0325,-3.029,-3.0315,-3.0322,-3.033,-3.0341,-3.0142,-3.0328,-3.0327,-3.0326,-3.0326,-3.0326,0,-3.0292,-3.0287,-3.0317,-3.0334,-3.0359,-3.0312,-3.0321,-3.0346,-3.0385,-3.039,-3.0413,-3.0454,-3.0484,-3.0467,-3.0492,-3.0523,-3.0503,-3.0531,-3.053,-3.053,-3.037,-3.0353,-3.0547,-3.0547,-3.0547,-3.0547,-3.0547,-3.0547,-3.0399,-3.0465,-3.0447,-3.0514,-3.0508,-3.0551,-3.056,-3.057,-3.0573,-3.0622,-3.0647,-3.0635,-3.063,-3.0655,-3.0681,-3.0675,-3.0688,-3.0725,-3.0712,-3.0563,-3.0541,-3.0521,-3.0504,-3.0727,-3.0727,-3.0869,-3.087,-3.0871]},{"header":{"parameterUnit":"m.s-1","parameterCategory":1,"la1":30.2991,"la2":30.254,"lo1":-89.0895,"lo2":-89.0444,"dy":0.0017,"dx":0.0017,"nx":28,"ny":28,"refTime":"2025-12-16T03:00:00:Z","depth":0,"parameterNumber":3,"parameterNumberName":"V-component_of_WINDS"},"data":[0,0,0,0,0,0,0,0,0,0,0,0,0,0,0,0,0,0,0,0,0,0,0,0,0,0,0,0,0,0,0,0,0,0,0,0,0,0,0,0,0,0,0,0,0,0,0,0,0,0,0,0,0,0,0,0,0,0,-3.263,-3.263,0,-3.2662,-3.2663,-3.2663,-3.26,-3.2598,-3.2596,-3.2594,-3.2625,-3.2628,-3.2631,0,0,0,0,0,0,0,0,0,0,0,0,0,-3.2511,-3.2514,-3.263,-3.263,-3.2631,-3.2662,-3.2663,-3.2663,-3.2601,-3.2598,-3.2596,-3.2593,-3.2624,-3.2627,-3.2631,0,0,0,0,0,0,0,0,0,0,0,0,0,-3.2555,-3.2514,-3.263,-3.2604,-3.2602,-3.2662,-3.2663,-3.2663,-3.2601,-3.2598,-3.2595,-3.2592,-3.2623,-3.2627,-3.2631,-3.2718,0,0,-3.2644,-3.2646,0,0,0,0,0,0,0,0,-3.2553,-3.2559,-3.2607,-3.2605,-3.2603,-3.2624,-3.2632,-3.2682,-3.2602,-3.2601,-3.2594,-3.2591,-3.2627,-3.2631,-3.2644,-3.272,-3.2721,-3.2644,-3.2647,-3.2648,-3.265,0,0,0,0,0,0,0,-3.255,-3.2558,-3.2643,-3.2608,-3.2606,-3.2589,-3.2592,-3.2641,-3.2631,-3.2601,-3.2597,-3.2602,-3.2626,-3.264,-3.2644,-3.2722,-3.2644,-3.2648,-3.265,-3.2652,-3.287,-3.2873,0,0,0,0,0,0,-3.255,-3.2556,-3.2642,-3.2644,-3.257,-3.2594,-3.2597,-3.2621,-3.263,-3.2629,-3.2604,-3.2598,-3.2634,-3.2639,-3.2645,-3.2747,-3.2648,-3.2652,-3.2655,-3.2867,-3.2871,-3.2874,0,0,0,0,0,0,-3.2548,-3.2559,-3.264,-3.2598,-3.2608,-3.2599,-3.2626,-3.2623,-3.2637,-3.2633,-3.263,-3.2621,-3.2632,-3.2639,-3.27,-3.2747,-3.2654,-3.2658,-3.2863,-3.2868,-3.2872,-3.2953,0,0,0,0,0,0,-3.2545,-3.2558,-3.2592,-3.26,-3.261,-3.2697,-3.2629,-3.2626,-3.2645,-3.2637,-3.2648,-3.2646,-3.263,-3.2695,-3.2705,-3.2751,-3.2661,-3.2858,-3.2865,-3.2871,-3.2946,-3.296,-3.2972,0,0,0,0,0,-3.2541,-3.2613,-3.2594,-3.2605,-3.2652,-3.27,-3.2705,-3.2686,-3.2649,-3.2682,-3.2679,-3.2646,-3.274,-3.2702,-3.2712,-3.2761,-3.2855,-3.2863,-3.287,-3.294,-3.2957,-3.2971,0,0,0,0,0,0,-3.261,-3.2613,-3.2593,-3.2669,-3.2685,-3.2689,-3.2731,-3.2705,-3.2731,-3.2723,-3.2697,-3.27,-3.2766,-3.2769,-3.2726,-3.2845,-3.2791,-3.2801,-3.2841,-3.2857,-3.287,-3.2868,-3.2664,0,0,0,0,0,-3.2635,-3.2674,-3.2674,-3.2742,-3.2751,-3.274,-3.2759,-3.2743,-3.2758,-3.2764,-3.2765,-3.278,-3.2812,-3.2835,-3.2865,-3.2946,-3.2947,-3.2984,-3.2997,-3.3008,-3.3017,-3.3059,-3.3076,-3.2899,-3.2899,-3.2899,0,0,-3.2685,-3.2692,-3.2718,-3.2756,-3.2766,-3.2806,-3.2745,-3.279,-3.282,-3.277,-3.2829,-3.283,-3.2845,-3.2916,-3.2948,-3.2921,-3.3066,-3.3017,-3.3026,-3.3029,-3.3069,-3.3086,-3.31,-3.2904,-3.2903,-3.2902,0,0,-3.2798,-3.2807,-3.2864,-3.2875,-3.2892,-3.2884,-3.2897,-3.2906,-3.2905,-3.2963,-3.2927,-3.2961,-3.3018,-3.303,-3.3043,-3.316,-3.313,-3.317,-3.3238,-3.328,-3.3294,-3.3306,-3.3347,-3.3362,-3.3179,-3.3179,-3.3179,0,-3.2858,-3.2918,-3.2897,-3.2945,-3.2962,-3.2919,-3.2977,-3.2988,-3.3013,-3.3026,-3.2995,-3.3066,-3.3073,-3.3146,-3.3175,-3.3187,-3.3201,-3.3169,-3.3293,-3.3305,-3.3316,-3.3356,-3.3371,-3.3184,-3.3183,-3.3183,-3.3182,0,-3.2992,-3.3034,-3.3078,-3.3104,-3.3126,-3.3178,-3.3164,-3.3189,-3.317,-3.3165,-3.3225,-3.3231,-3.3262,-3.3278,-3.326,-3.3349,-3.3332,-3.3298,-3.3243,-3.3339,-3.3375,-3.339,-3.3191,-3.3189,-3.3188,-3.3186,0,0,-3.3149,-3.3163,-3.3179,-3.319,-3.3205,-3.3236,-3.3286,-3.3316,-3.3338,-3.3356,-3.3397,-3.3446,-3.3415,-3.343,-3.3413,-3.345,-3.3541,-3.3411,-3.3411,-3.3435,-3.3639,-3.3665,-3.3682,-3.3521,-3.3524,-3.3526,-3.3638,0,-3.3261,-3.3348,-3.333,-3.3415,-3.3453,-3.3413,-3.3456,-3.3469,-3.3465,-3.3496,-3.3491,-3.3527,-3.3483,-3.3492,-3.3526,-3.3523,-3.3582,-3.3515,-3.3558,-3.356,-3.3557,-3.3701,-3.3729,-3.3833,-3.3652,-3.3654,-3.3656,0,-3.3403,-3.3428,-3.3517,-3.3525,-3.354,-3.358,-3.3605,-3.3636,-3.3649,-3.3644,-3.3661,-3.3637,-3.3685,-3.363,-3.3696,-3.3651,-3.3667,-3.3668,-3.3672,-3.3675,-3.3614,-3.3709,-3.3866,-3.3882,-3.3678,-3.3676,-3.3675,0,-3.351,-3.3565,-3.3625,-3.3635,-3.3646,-3.3675,-3.368,-3.3691,-3.371,-3.3732,-3.3744,-3.3772,-3.3787,-3.3808,-3.3792,-3.3753,-3.386,-3.3804,-3.3856,-3.3857,-3.3881,-3.388,-3.4044,-3.3892,-3.3892,-3.3891,-3.3891,0,-3.3636,-3.3693,-3.3673,-3.371,-3.3771,-3.3749,-3.381,-3.381,-3.382,-3.3856,-3.3822,-3.3856,-3.3832,-3.3864,-3.3851,-3.3907,-3.3914,-3.391,-3.3906,-3.3914,-3.3914,-3.3924,-3.3917,-3.3895,-3.3894,-3.3894,-3.3893,0,-3.3766,-3.3755,-3.3818,-3.3823,-3.3825,-3.387,-3.3874,-3.3908,-3.3901,-3.3947,-3.3956,-3.3946,-3.3982,-3.3967,-3.4005,-3.3996,-3.4068,-3.4054,-3.4064,-3.4061,-3.4114,-3.4109,-3.4291,-3.4313,-3.4146,-3.4148,-3.4149,0,-3.3848,-3.389,-3.39,-3.3922,-3.393,-3.3965,-3.3985,-3.3964,-3.3986,-3.4004,-3.4036,-3.4068,-3.4093,-3.4152,-3.4147,-3.4176,-3.4162,-3.4224,-3.4166,-3.4172,-3.4163,-3.4161,-3.4165,-3.4235,-3.4237,-3.4239,-3.424,0,-3.3994,-3.3987,-3.4017,-3.4045,-3.407,-3.4091,-3.4108,-3.4128,-3.4108,-3.4134,-3.417,-3.419,-3.4228,-3.4261,-3.4286,-3.429,-3.4262,-3.4258,-3.4272,-3.428,-3.4284,-3.4283,-3.4096,-3.4254,-3.4253,-3.4252,-3.4251,-3.4251,-3.4102,-3.4138,-3.415,-3.4185,-3.4196,-3.4213,-3.4246,-3.4243,-3.4274,-3.4304,-3.4289,-3.4331,-3.4342,-3.4373,-3.4381,-3.4413,-3.4389,-3.4409,-3.4414,-3.4419,-3.4427,-3.4279,-3.4418,-3.4417,-3.4417,-3.4416,-3.4416,0,-3.4247,-3.4253,-3.4285,-3.4311,-3.4338,-3.431,-3.4328,-3.4352,-3.439,-3.4403,-3.4429,-3.447,-3.4501,-3.4499,-3.4528,-3.4554,-3.4542,-3.4562,-3.456,-3.4562,-3.4446,-3.4432,-3.4572,-3.4571,-3.4571,-3.4571,-3.4571,-3.4571,-3.4326,-3.4384,-3.4378,-3.4442,-3.4446,-3.4488,-3.4501,-3.4517,-3.4527,-3.4575,-3.4601,-3.46,-3.4607,-3.4635,-3.4663,-3.4661,-3.4673,-3.4699,-3.4692,-3.4585,-3.457,-3.4555,-3.4541,-3.4701,-3.4702,-3.4805,-3.4806,-3.4806]}]]